Eufaula, AL

1:43 PM CDT on July 23, 2017 (GMT -0500)
Weedon

Weather History for KEUF - November, 2012

Change the Weather History Date:

Tuesday, November 6, 2012

  Actual Average (KLSF) Record (KLSF)
Temperature  
Mean Temperature 54 °F -  
Max Temperature 61 °F 69 °F 84 °F (2015)
Min Temperature 48 °F 43 °F 28 °F (2010)
Degree Days  
Heating Degree Days 10    
Growing Degree Days 4 (Base 50)    
Moisture  
Dew Point 48 °F    
Average Humidity 84    
Maximum Humidity 100    
Minimum Humidity 54    
Precipitation  
Precipitation 0.08 in - - ()
Sea Level Pressure  
Sea Level Pressure 29.93 in    
Wind  
Wind Speed 2 mph (NW)    
Max Wind Speed 8 mph    
Max Gust Speed 17 mph    
Visibility 8 miles    
Events Rain    
Averages and records for this station are not official NWS values.
T = Trace of Precipitation, MM = Missing Value Source: NWS Daily Summary

Daily Weather History Graph

Daily Weather History Graph

Search for Another Location

Airport or City:

Trip Planner

Search our weather history database for the weather conditions in past years. The results will help you decide how hot, cold, wet, or windy it might be!

Date:

Astronomy

Nov. 06, 2012 Rise Set
Actual Time 6:01 AM CST 4:46 PM CST
Civil Twilight 5:36 AM CST 5:11 PM CST
Nautical Twilight 5:07 AM CST 5:40 PM CST
Astronomical Twilight 4:38 AM CST 6:09 PM CST
Moon 11:19 PM CST (11/6) 11:56 AM CST (11/6)
Length of Visible Light 11h 35m
Length of Day
10h 44m
Waning Gibbous, 53% of the Moon is Illuminated
Nov 6
Waning Gibbous
Nov 6
Last Quarter
Nov 13
New
Nov 20
First Quarter
Nov 28
Full

Hourly Weather History & Observations

Time (CST) Temp. Dew Point Humidity Pressure Visibility Wind Dir Wind Speed Gust Speed Precip Events Conditions
12:58 AM 54.0 °F 52.0 °F 93% 29.94 in 4.0 mi NW 4.6 mph - 0.05 in Rain Rain
1:31 AM 53.6 °F 51.8 °F 94% 29.91 in 8.0 mi NE 3.5 mph - 0.02 in Rain Light Rain
1:58 AM 53.1 °F 51.1 °F 93% 29.90 in 9.0 mi Calm Calm - 0.03 in   Mostly Cloudy
2:58 AM 53.1 °F 50.0 °F 89% 29.90 in 9.0 mi Calm Calm - N/A   Overcast
3:33 AM 53.6 °F 51.8 °F 94% 29.90 in 9.0 mi Calm Calm - N/A   Overcast
3:58 AM 52.0 °F 50.0 °F 93% 29.90 in 4.0 mi Calm Calm - N/A   Overcast
4:02 AM 51.8 °F 50.0 °F 94% 29.90 in 2.5 mi Calm Calm - N/A   Overcast
4:07 AM 51.8 °F 50.0 °F 94% 29.90 in 1.5 mi Calm Calm - N/A   Overcast
4:16 AM 50.0 °F 48.2 °F 94% 29.90 in 0.8 mi Calm Calm - N/A   Mostly Cloudy
4:32 AM 50.0 °F 48.2 °F 94% 29.90 in 1.8 mi Calm Calm - N/A   Scattered Clouds
4:36 AM 50.0 °F 48.2 °F 94% 29.90 in 2.0 mi Calm Calm - N/A   Mostly Cloudy
4:48 AM 48.2 °F 48.2 °F 100% 29.90 in 1.8 mi Calm Calm - N/A   Mostly Cloudy
4:52 AM 50.0 °F 48.2 °F 94% 29.90 in 2.5 mi Calm Calm - N/A   Mostly Cloudy
4:58 AM 50.0 °F 50.0 °F 100% 29.90 in 4.0 mi Calm Calm - N/A   Mostly Cloudy
5:58 AM 53.1 °F 51.1 °F 93% 29.91 in 6.0 mi Calm Calm - N/A   Overcast
6:58 AM 53.1 °F 52.0 °F 96% 29.93 in 3.0 mi WNW 3.5 mph - N/A   Overcast
7:25 AM 53.6 °F 51.8 °F 94% 29.94 in 4.0 mi WNW 3.5 mph - N/A   Overcast
7:36 AM 53.6 °F 51.8 °F 94% 29.94 in 5.0 mi West 3.5 mph - N/A   Overcast
7:58 AM 54.0 °F 52.0 °F 93% 29.93 in 7.0 mi WNW 4.6 mph - N/A   Overcast
8:39 AM 53.6 °F 48.2 °F 82% 29.95 in 10.0 mi NW 8.1 mph - N/A   Overcast
8:45 AM 53.6 °F 50.0 °F 88% 29.95 in 10.0 mi NW 4.6 mph - N/A   Overcast
8:58 AM 53.1 °F 50.0 °F 89% 29.94 in 10.0 mi NW 4.6 mph - N/A   Overcast
9:07 AM 53.6 °F 50.0 °F 88% 29.95 in 10.0 mi NW 3.5 mph - N/A   Overcast
9:22 AM 53.6 °F 48.2 °F 82% 29.95 in 10.0 mi WNW 6.9 mph - N/A   Overcast
9:58 AM 52.0 °F 46.9 °F 83% 29.96 in 10.0 mi NNW 6.9 mph - N/A   Overcast
10:11 AM 53.6 °F 46.4 °F 77% 29.97 in 10.0 mi WNW 8.1 mph - N/A   Overcast
10:17 AM 53.6 °F 48.2 °F 82% 29.97 in 10.0 mi Variable 4.6 mph - N/A   Overcast
10:22 AM 53.6 °F 48.2 °F 82% 29.96 in 10.0 mi Variable 4.6 mph - N/A   Overcast
10:58 AM 54.0 °F 46.9 °F 77% 29.95 in 10.0 mi NW 5.8 mph - N/A   Overcast
11:42 AM 59.0 °F 46.4 °F 63% 29.93 in 10.0 mi Variable 4.6 mph - N/A   Mostly Cloudy
11:58 AM 59.0 °F 45.0 °F 60% 29.91 in 10.0 mi NW 8.1 mph 17.3 mph N/A   Mostly Cloudy
12:58 PM 59.0 °F 45.0 °F 60% 29.90 in 10.0 mi Variable 5.8 mph - N/A   Mostly Cloudy
1:58 PM 61.0 °F 44.1 °F 54% 29.88 in 10.0 mi NW 6.9 mph - N/A   Overcast
2:58 PM 59.0 °F 45.0 °F 60% 29.90 in 10.0 mi Variable 6.9 mph - N/A   Overcast
3:58 PM 57.0 °F 46.0 °F 67% 29.91 in 10.0 mi NNW 4.6 mph - N/A   Mostly Cloudy
4:58 PM 55.9 °F 46.9 °F 72% 29.92 in 10.0 mi Calm Calm - N/A   Overcast
5:58 PM 54.0 °F 46.0 °F 75% 29.94 in 10.0 mi Variable 3.5 mph - N/A   Overcast
6:51 PM 53.6 °F 46.4 °F 77% 29.95 in 10.0 mi Calm Calm - N/A   Overcast
6:58 PM 54.0 °F 46.0 °F 75% 29.95 in 10.0 mi Calm Calm - N/A   Overcast
7:58 PM 53.1 °F 46.0 °F 77% 29.96 in 10.0 mi Calm Calm - N/A   Overcast
8:58 PM 52.0 °F 46.0 °F 80% 29.98 in 10.0 mi Calm Calm - N/A   Overcast
9:38 PM 51.8 °F 46.4 °F 82% 29.98 in 10.0 mi Calm Calm - N/A   Overcast
9:48 PM 51.8 °F 46.4 °F 82% 29.97 in 10.0 mi Calm Calm - 0.00 in Rain Light Rain
9:56 PM 51.8 °F 46.4 °F 82% 29.98 in 10.0 mi Calm Calm - 0.00 in   Overcast
9:58 PM 52.0 °F 46.9 °F 83% 29.97 in 10.0 mi Calm Calm - 0.00 in   Overcast
10:37 PM 51.8 °F 46.4 °F 82% 29.97 in 10.0 mi Calm Calm - N/A   Overcast
10:53 PM 51.8 °F 46.4 °F 82% 29.97 in 10.0 mi Calm Calm - N/A   Overcast
10:58 PM 52.0 °F 46.9 °F 83% 29.97 in 10.0 mi Calm Calm - N/A   Overcast
11:26 PM 51.8 °F 46.4 °F 82% 29.97 in 10.0 mi Calm Calm - N/A   Overcast
11:38 PM 51.8 °F 46.4 °F 82% 29.96 in 10.0 mi Calm Calm - N/A   Overcast
11:58 PM 51.1 °F 46.9 °F 86% 29.96 in 9.0 mi Calm Calm - N/A   Overcast